Location: Sungai Bunut
(2.6333°N, 113.7333°E)
Time: 08:53:29
(UTC+00:00)

Courier 1B - Pass Details

Date: 04 December 2023
Orbit: 962 x 1209 km, 28.3° (Epoch: 03 March)

Event Time Altitude Azimuth Distance (km) Brightness Sun altitude
Rises 10:32:08 0° 288° (WNW) 3,726 11.4 -4.9°
Reaches altitude 10° 10:34:51 10° 282° (WNW) 2,808 10.9 -5.6°
Maximum altitude 10:41:24 47° 210° (SSW) 1,378 8.8 -7.1°
Drops below altitude 10° 10:48:24 10° 137° (SE) 2,989 9.8 -8.7°
Sets 10:51:23 0° 132° (SE) 3,986 10.4 -9.4°
